DELTA 1 DEB, 42583

Orbit data source: Space-Track

DELTA 1 DEB, 42583 is space debris in SSO originally from a launch on Tue, 06 Nov 1973 UTC launched from the Air Force Western Test Range (AFWTR). Debris objects in space refer to the collection of defunct objects orbiting the Earth. Examples of debris include non-operational satellites, rocket bodies, and fragments generated from explosions, collisions, or faulty payload assembly.

Loading next visibility...
Identifier
42583, 1973-086HX
Orbit
SSO
Country
Flag of USUS
Related business
Manufacturer
Unknown
Mission
Spacecraft
Bus & Motor
Unknown
Mass
Unknown
Launch date (UTC)
1973-11-06 (53 years ago)
Launch vehicle
Unknown
Launch site
Air Force Western Test Range (AFWTR)
Object type
Payload
Rocket body
Debris
Shape & HBR
Unknown shape, 0.1 m
Radar Cross Section
Small (<0.1 m²)

Expand to show TLE details & history
Last TLE update: 1 week ago

TLE from 1 week ago
0 DELTA 1 DEB
1 42583U 73086HX  26256.90327389  .00000122  00000-0  13040-2 0  9993
2 42583 101.8600 242.8062 0095012 323.5735  35.8887 12.34775164535304
Epoch: 2026-09-13T21:40Z
TLE epoch observation values (Epoch: 2026-09-13T21:40:42.864Z)
Latitude
-0°
Longitude
-75.26365°
Altitude
1,470.753 km
Speed
7.155 km/s
True Right ascension
16h 11m 13s
True Declination
0° 00' 00"
Sunlit
Object was in daylight at epoch
Visualization orbit readout
Latitude
Unknown
Longitude
Unknown
Altitude
Unknown
Speed
Unknown
Apparent Right ascension
Unknown
Apparent Declination
Unknown
Sunlit
N/A
Visualization observer readout
Local Sidereal Time
09:46:54
Azimuth
Unknown
Elevation
Unknown
Doppler factor
Unknown
Orbital elements
Apogee altitude
1,601.505 km
Perigee altitude
1,451.3 km
Semi-major axis
7,904.54 km
Eccentricity
0.0095
Inclination
101.86°
RAAN
242.8062°
Arg. of periapsis
323.5735°
True anomaly
36.53313°
Mean anomaly
35.8887°
Eccentric anomaly
36.21029°
Mean motion
3.08836 °/min
Orbital period
116.57 mins
BSTAR
0.001304
Loading maneuver chart data...
Computing Atmospheric mass density...
Loading historical data...
Loading historical data...
Loading historical data...
Loading historical data...
Loading historical data...
Loading historical data...
Loading historical data...

Documentation

Showing up to 5 results
|